DW4321 Weather Reports


Display with metric or nautical units.
time (UTC)temp
F
wind
direction
speed
MPH
gust
MPH
rain 1hr
in
rain 24hr
in
rain mn
in
humidity
%
barometer
mb
20260507144543 53 233 4.0 11.0 0.00 0.04 0.00 52 1012.1
20260507143051 52 5 2.0 9.0 0.00 0.04 0.00 50 1012.3
20260507141549 51 324 3.0 9.0 0.00 0.04 0.00 50 1012.6
20260507140048 50 235 4.0 10.0 0.00 0.04 0.00 53 1012.5
20260507134547 49 300 1.0 6.0 0.00 0.06 0.00 57 1012.6
20260507133043 48 348 1.0 4.0 0.00 0.06 0.00 56 1012.6
20260507131543 47 160 0.0 5.0 0.00 0.06 0.00 60 1012.8
20260507130058 46 0 0.0 3.0 0.00 0.06 0.00 59 1013.0
20260507124550 46 0 1.0 4.0 0.00 0.10 0.00 64 1013.3
20260507123103 45 340 0.0 5.0 0.00 0.10 0.00 66 1013.1
20260507121556 44 0 0.0 4.0 0.00 0.10 0.00 67 1013.0
20260507120048 44 340 0.0 5.0 0.00 0.10 0.00 68 1012.9
20260507114542 43 350 0.0 4.0 0.00 0.17 0.00 71 1012.7
20260507113042 42 0 1.0 3.0 0.00 0.17 0.00 73 1012.6
20260507111541 41 0 0.0 2.0 0.00 0.17 0.00 75 1012.6
20260507110047 40 0 0.0 1.0 0.00 0.17 0.00 75 1012.3
20260507104545 40 336 0.0 3.0 0.00 0.19 0.00 75 1012.2
20260507103044 40 0 0.0 0.0 0.00 0.19 0.00 74 1012.2
20260507101556 40 0 0.0 2.0 0.00 0.19 0.00 73 1012.1
20260507100053 40 0 0.0 3.0 0.00 0.19 0.00 72 1012.0
20260507094547 41 330 0.0 4.0 0.00 0.19 0.00 72 1012.0
20260507093046 41 340 0.0 3.0 0.00 0.19 0.00 72 1011.9
20260507091545 41 324 0.0 3.0 0.00 0.19 0.00 72 1012.1
20260507090050 42 0 0.0 2.0 0.00 0.19 0.00 70 1012.0
20260507084550 43 0 0.0 3.0 0.00 0.19 0.00 68 1011.9
20260507083104 44 0 0.0 1.0 0.00 0.19 0.00 66 1012.1
20260507081556 44 0 0.0 2.0 0.00 0.19 0.00 64 1012.2
20260507080056 45 325 1.0 4.0 0.00 0.19 0.00 62 1012.1
20260507074547 46 0 0.0 6.0 0.00 0.19 0.00 62 1012.2
20260507073057 46 319 0.0 4.0 0.00 0.19 0.00 62 1012.3
20260507071545 46 331 1.0 4.0 0.00 0.19 0.00 61 1012.2
20260507070047 46 0 0.0 4.0 0.00 0.19 0.00 61 1012.2
20260507064544 46 315 1.0 4.0 0.00 0.19 0.00 62 1012.3
20260507063048 46 0 1.0 6.0 0.00 0.19 0.00 61 1012.2
20260507061544 46 321 2.0 8.0 0.00 0.19 0.00 61 1012.5
20260507060042 47 0 0.0 3.0 0.00 0.19 0.00 60 1012.7
20260507054547 47 334 0.0 5.0 0.00 0.19 0.00 61 1012.7
20260507053044 47 324 2.0 5.0 0.00 0.19 0.00 60 1012.5
20260507051545 48 0 0.0 8.0 0.00 0.19 0.00 60 1012.7
20260507050041 48 0 2.0 8.0 0.00 0.19 0.00 60 1012.6
20260507044543 48 334 0.0 4.0 0.00 0.19 0.00 63 1012.7
20260507043048 48 329 1.0 4.0 0.00 0.19 0.00 64 1012.4
20260507041549 48 0 0.0 3.0 0.00 0.19 0.00 65 1012.3
20260507040048 49 0 1.0 8.0 0.00 0.19 0.00 64 1012.2
20260507034545 49 347 0.0 3.0 0.00 0.19 0.19 68 1012.4
20260507033042 49 0 0.0 3.0 0.00 0.19 0.19 69 1012.3
20260507031543 49 352 0.0 3.0 0.00 0.19 0.19 68 1012.2
20260507030039 50 322 3.0 8.0 0.00 0.19 0.19 69 1012.0
20260507024556 50 360 4.0 10.0 0.00 0.19 0.19 71 1011.9
20260507023045 50 335 5.0 13.0 0.00 0.19 0.19 75 1011.8
20260507021545 50 326 1.0 7.0 0.00 0.19 0.19 76 1011.6
20260507020104 51 5 1.0 4.0 0.00 0.19 0.19 77 1011.5
20260507014549 51 341 0.0 5.0 0.00 0.19 0.19 77 1011.9
20260507013045 51 0 0.0 3.0 0.00 0.19 0.19 77 1011.8
20260507011545 52 352 0.0 3.0 0.00 0.19 0.19 76 1012.0
20260507010045 52 352 0.0 6.0 0.00 0.19 0.19 76 1012.0
20260507004545 52 5 1.0 7.0 0.00 0.19 0.19 76 1011.9
20260507003043 52 338 2.0 10.0 0.00 0.19 0.19 77 1011.7
20260507001547 52 0 1.0 4.0 0.00 0.19 0.19 79 1011.3
20260507000049 52 323 0.0 10.0 0.00 0.19 0.19 79 1011.2
20260506234552 53 12 1.0 6.0 0.00 0.19 0.19 80 1010.9
20260506233045 53 0 0.0 6.0 0.00 0.19 0.19 80 1010.6
20260506231552 53 0 1.0 7.0 0.00 0.19 0.19 79 1010.3
20260506230052 53 325 3.0 10.0 0.00 0.19 0.19 79 1010.3
20260506224546 54 318 3.0 11.0 0.00 0.19 0.19 79 1010.4
20260506223053 54 338 3.0 9.0 0.00 0.19 0.19 79 1010.1
20260506221544 55 310 3.0 11.0 0.00 0.19 0.19 79 1009.7
20260506220045 55 319 4.0 15.0 0.00 0.19 0.19 78 1009.7
20260506214541 56 281 4.0 12.0 0.00 0.19 0.19 78 1009.5
20260506213059 56 294 3.0 12.0 0.00 0.19 0.19 78 1009.3
20260506211603 57 248 3.0 13.0 0.00 0.19 0.19 79 1008.9
20260506210045 57 288 3.0 13.0 0.00 0.19 0.19 79 1008.7
20260506204548 58 322 3.0 15.0 0.00 0.21 0.19 80 1008.4
20260506203046 58 0 5.0 12.0 0.00 0.21 0.19 81 1008.2
20260506201554 58 323 4.0 12.0 0.00 0.21 0.19 82 1008.2
20260506200050 58 259 5.0 12.0 0.00 0.21 0.19 83 1008.0
20260506194556 58 264 5.0 15.0 0.00 0.21 0.19 84 1007.8
20260506193041 59 296 5.0 16.0 0.00 0.21 0.19 84 1007.7
20260506191547 60 299 6.0 16.0 0.00 0.21 0.19 84 1007.4
20260506190043 60 333 4.0 9.0 0.00 0.21 0.19 86 1007.2
20260506184539 60 295 2.0 6.0 0.00 0.21 0.19 90 1007.2
20260506183057 59 305 1.0 5.0 0.01 0.21 0.19 91 1007.4
20260506181547 59 0 2.0 8.0 0.02 0.21 0.19 90 1007.3
20260506180049 59 254 3.0 8.0 0.03 0.21 0.19 91 1007.3
20260506174544 59 0 1.0 4.0 0.03 0.21 0.19 91 1007.2
20260506173052 59 0 0.0 4.0 0.02 0.20 0.18 91 1007.1
20260506171549 59 0 0.0 7.0 0.01 0.19 0.17 90 1007.1
20260506170104 60 221 1.0 7.0 0.00 0.18 0.16 90 1006.9
20260506164543 60 180 1.0 11.0 0.00 0.18 0.16 90 1006.8
20260506163057 60 174 1.0 8.0 0.01 0.18 0.16 91 1006.9
20260506161544 59 0 0.0 14.0 0.01 0.18 0.16 91 1007.0
20260506160043 58 0 2.0 9.0 0.01 0.18 0.16 91 1006.8
20260506154549 58 222 1.0 6.0 0.01 0.18 0.16 91 1007.0
20260506153044 58 180 0.0 9.0 0.00 0.17 0.15 91 1006.9
20260506151553 57 0 0.0 5.0 0.00 0.17 0.15 90 1006.8
20260506150045 57 0 0.0 4.0 0.00 0.17 0.15 91 1006.7